Creek Data

    Home     View Charts     View Raw Data     Messages

ID Distance Battery Voltage Battery Current Internal Temp Internal Humidity External Temp Solar Input rssi snr Time Stamp Record
65140 15.2 4.07 5 69 41 59 5.1 -77 8 02/02/2026 12:00 PM 47914
65139 15.2 3.79 8 68 41 60 5.1 -77 7 02/02/2026 11:45 AM 47913
65138 15.2 3.84 8 65 42 56 5.1 -76 8 02/02/2026 11:30 AM 47912
65137 15.2 3.79 0 64 42 56 5.1 -76 8 02/02/2026 11:15 AM 47911
65136 15.2 3.82 0 62 42 54 5.1 -76 8 02/02/2026 11:00 AM 47910
65135 15.2 3.79 8 60 42 55 5.1 -75 7 02/02/2026 10:45 AM 47909
65134 15.3 3.99 8 57 43 54 5.1 -74 8 02/02/2026 10:30 AM 47908
65133 15.2 3.79 0 54 44 54 5.1 -75 8 02/02/2026 10:15 AM 47907
65132 15.2 3.79 0 51 44 52 5.1 -75 8 02/02/2026 10:00 AM 47906
65131 15.2 3.78 0 49 44 50 5.1 -75 8 02/02/2026 09:45 AM 47905
65130 15.1 3.76 0 46 45 48 5.1 -75 8 02/02/2026 09:30 AM 47904
65129 15.1 3.77 0 43 46 45 5.1 -76 8 02/02/2026 09:15 AM 47903
65128 15.0 3.77 0 41 46 42 5.1 -87 8 02/02/2026 09:00 AM 47902
65127 15.0 3.80 0 38 47 41 5.1 -91 6 02/02/2026 08:45 AM 47901
65126 14.9 3.77 0 36 48 39 5.1 -91 8 02/02/2026 08:30 AM 47900
65125 14.9 3.77 0 35 48 37 5.1 -91 7 02/02/2026 08:15 AM 47899
65124 14.9 3.89 14 34 48 35 4.5 -89 7 02/02/2026 08:00 AM 47898
65123 14.9 3.72 12 34 49 34 4.5 -88 8 02/02/2026 07:45 AM 47897
65122 14.9 3.78 0 33 50 34 4.5 -89 8 02/02/2026 07:30 AM 47896
65121 14.9 3.60 -9 33 50 34 4.5 -85 9 02/02/2026 07:15 AM 47895
65120 14.9 3.62 -5 33 49 33 1.2 -83 9 02/02/2026 07:00 AM 47894
65119 14.9 3.76 -5 33 50 35 0.1 -82 8 02/02/2026 06:45 AM 47893
65118 14.9 3.62 -5 33 49 35 0 -78 8 02/02/2026 06:30 AM 47892
65117 14.9 3.62 -5 34 49 35 0 -77 8 02/02/2026 06:15 AM 47891
65116 14.9 3.77 -5 34 50 36 0 -77 8 02/02/2026 06:00 AM 47890